Darrow, LA

7:30 AM CST on February 19, 2017 (GMT -0600)
Gonzales

Weather History for KL38 - April, 2013

Change the Weather History Date:

Friday, April 5, 2013

  Actual Average (KBTR) Record (KBTR)
Temperature  
Mean Temperature 58 °F -  
Max Temperature 67 °F 73 °F 87 °F (1955)
Min Temperature 48 °F 52 °F 33 °F (1987)
Degree Days  
Heating Degree Days 8    
Growing Degree Days 8 (Base 50)    
Moisture  
Dew Point 46 °F    
Average Humidity 75    
Maximum Humidity 97    
Minimum Humidity 48    
Precipitation  
Precipitation 0.00 in - - ()
Sea Level Pressure  
Sea Level Pressure 30.11 in    
Wind  
Wind Speed 7 mph (NNW)    
Max Wind Speed 15 mph    
Max Gust Speed 22 mph    
Visibility 10 miles    
Events      
Averages and records for this station are not official NWS values.
T = Trace of Precipitation, MM = Missing Value Source: NWS Daily Summary

Daily Weather History Graph

Daily Weather History Graph

Search for Another Location

Airport or City:

Trip Planner

Search our weather history database for the weather conditions in past years. The results will help you decide how hot, cold, wet, or windy it might be!

Date:

Astronomy

Apr. 05, 2013 Rise Set
Actual Time 6:47 AM CDT 7:25 PM CDT
Civil Twilight 6:23 AM CDT 7:49 PM CDT
Nautical Twilight 5:55 AM CDT 8:17 PM CDT
Astronomical Twilight 5:26 AM CDT 8:46 PM CDT
Moon 3:35 AM CDT (4/5) 3:07 PM CDT (4/5)
Length of Visible Light 13h 25m
Length of Day
12h 37m
Waning Crescent, 23% of the Moon is Illuminated
Apr 5
Waning Crescent
Apr 10
New
Apr 18
First Quarter
Apr 25
Full
May 2
Last Quarter

Hourly Weather History & Observations

Time (CDT) Temp. Dew Point Humidity Pressure Visibility Wind Dir Wind Speed Gust Speed Precip Events Conditions
12:15 AM 49.6 °F 44.6 °F 83% 30.06 in 10.0 mi NNW 5.8 mph - N/A   Overcast
12:35 AM 49.6 °F 44.6 °F 83% 30.06 in 10.0 mi NW 8.1 mph - N/A   Overcast
12:55 AM 49.6 °F 44.6 °F 83% 30.06 in 10.0 mi NW 9.2 mph 16.1 mph N/A   Overcast
1:15 AM 49.3 °F 45.3 °F 86% 30.06 in 10.0 mi WNW 8.1 mph - N/A   Overcast
1:35 AM 49.3 °F 45.3 °F 86% 30.07 in 10.0 mi NW 8.1 mph - N/A   Overcast
1:55 AM 49.1 °F 44.6 °F 84% 30.08 in 10.0 mi NW 10.4 mph 19.6 mph N/A   Overcast
2:15 AM 49.1 °F 44.4 °F 84% 30.08 in 10.0 mi WNW 15.0 mph 21.9 mph N/A   Overcast
2:35 AM 48.7 °F 44.2 °F 84% 30.08 in 10.0 mi NW 6.9 mph - N/A   Overcast
2:55 AM 48.2 °F 44.6 °F 87% 30.08 in 10.0 mi NW 6.9 mph - N/A   Overcast
3:15 AM 48.2 °F 44.6 °F 87% 30.07 in 10.0 mi NW 9.2 mph - N/A   Overcast
3:35 AM 48.2 °F 44.2 °F 86% 30.07 in 10.0 mi NW 10.4 mph 17.3 mph N/A   Overcast
3:55 AM 48.2 °F 43.7 °F 84% 30.08 in 10.0 mi NNW 11.5 mph - N/A   Overcast
4:15 AM 48.2 °F 43.7 °F 84% 30.07 in 10.0 mi NW 8.1 mph - N/A   Overcast
4:35 AM 48.2 °F 43.3 °F 83% 30.07 in 10.0 mi NW 6.9 mph - N/A   Overcast
4:55 AM 48.2 °F 43.3 °F 83% 30.07 in 10.0 mi NW 4.6 mph - N/A   Overcast
5:15 AM 48.4 °F 43.5 °F 83% 30.08 in 10.0 mi NW 6.9 mph - N/A   Overcast
5:35 AM 48.4 °F 43.5 °F 83% 30.08 in 10.0 mi NNW 10.4 mph 21.9 mph N/A   Overcast
5:55 AM 48.2 °F 43.7 °F 84% 30.08 in 10.0 mi NNW 11.5 mph 17.3 mph N/A   Overcast
6:15 AM 48.2 °F 43.7 °F 84% 30.09 in 10.0 mi NNW 10.4 mph 18.4 mph N/A   Overcast
6:35 AM 48.2 °F 43.5 °F 84% 30.10 in 10.0 mi NNW 6.9 mph - N/A   Overcast
6:55 AM 48.4 °F 43.7 °F 84% 30.11 in 10.0 mi NNW 9.2 mph - N/A   Overcast
7:15 AM 48.4 °F 43.7 °F 84% 30.13 in 10.0 mi NNW 8.1 mph - N/A   Overcast
7:35 AM 48.6 °F 43.3 °F 82% 30.14 in 10.0 mi NNW 10.4 mph 18.4 mph N/A   Overcast
7:55 AM 48.7 °F 43.7 °F 83% 30.15 in 10.0 mi NNW 8.1 mph - N/A   Overcast
8:15 AM 49.1 °F 43.7 °F 82% 30.16 in 10.0 mi NNW 9.2 mph - N/A   Overcast
8:35 AM 49.5 °F 43.7 °F 81% 30.16 in 10.0 mi NNW 8.1 mph - N/A   Overcast
8:55 AM 50.2 °F 44.2 °F 80% 30.16 in 10.0 mi NNW 10.4 mph - N/A   Overcast
9:15 AM 50.7 °F 44.1 °F 78% 30.17 in 10.0 mi NNW 12.7 mph - N/A   Overcast
9:35 AM 51.6 °F 44.2 °F 76% 30.17 in 10.0 mi North 9.2 mph - N/A   Overcast
9:55 AM 52.2 °F 44.8 °F 76% 30.17 in 10.0 mi NW 11.5 mph 16.1 mph N/A   Overcast
10:15 AM 51.6 °F 44.4 °F 76% 30.17 in 10.0 mi North 11.5 mph 16.1 mph N/A   Overcast
10:35 AM 52.9 °F 44.8 °F 74% 30.17 in 10.0 mi North 6.9 mph - N/A   Overcast
10:55 AM 53.2 °F 45.3 °F 74% 30.18 in 10.0 mi North 5.8 mph - N/A   Overcast
11:15 AM 54.7 °F 45.9 °F 72% 30.19 in 10.0 mi North 8.1 mph - N/A   Overcast
11:35 AM 54.1 °F 45.7 °F 73% 30.19 in 10.0 mi NNW 10.4 mph 17.3 mph N/A   Overcast
11:55 AM 55.4 °F 45.9 °F 70% 30.18 in 10.0 mi NNW 13.8 mph 19.6 mph N/A   Overcast
12:15 PM 55.6 °F 46.0 °F 70% 30.17 in 10.0 mi North 9.2 mph 16.1 mph N/A   Overcast
12:35 PM 57.0 °F 46.8 °F 69% 30.16 in 10.0 mi NNW 11.5 mph 17.3 mph N/A   Mostly Cloudy
12:55 PM 58.5 °F 47.5 °F 67% 30.16 in 10.0 mi North 10.4 mph - N/A   Mostly Cloudy
1:15 PM 59.4 °F 47.5 °F 65% 30.15 in 10.0 mi NNW 9.2 mph - N/A   Scattered Clouds
1:35 PM 59.0 °F 48.0 °F 67% 30.14 in 10.0 mi North 5.8 mph 9.2 mph N/A   Mostly Cloudy
1:55 PM 60.6 °F 47.8 °F 63% 30.13 in 10.0 mi North 6.9 mph 16.1 mph N/A   Scattered Clouds
2:15 PM 61.5 °F 48.2 °F 62% 30.12 in 10.0 mi NNW 11.5 mph 17.3 mph N/A   Scattered Clouds
2:35 PM 62.2 °F 48.0 °F 60% 30.12 in 10.0 mi NNW 5.8 mph - N/A   Clear
2:55 PM 63.0 °F 47.7 °F 57% 30.11 in 10.0 mi NNW 10.4 mph 16.1 mph N/A   Clear
3:15 PM 64.2 °F 48.4 °F 56% 30.10 in 10.0 mi NNW 6.9 mph - N/A   Clear
3:35 PM 64.2 °F 47.8 °F 55% 30.09 in 10.0 mi NNW 6.9 mph - N/A   Clear
3:55 PM 66.2 °F 49.1 °F 54% 30.08 in 10.0 mi NNW 8.1 mph - N/A   Clear
4:15 PM 66.4 °F 48.9 °F 53% 30.08 in 10.0 mi NW 8.1 mph - N/A   Clear
4:35 PM 66.7 °F 48.4 °F 52% 30.07 in 10.0 mi NNW 8.1 mph - N/A   Clear
4:55 PM 67.3 °F 48.9 °F 52% 30.07 in 10.0 mi Calm Calm - N/A   Clear
5:15 PM 67.5 °F 48.6 °F 51% 30.06 in 10.0 mi NNW 4.6 mph - N/A   Clear
5:35 PM 67.3 °F 48.2 °F 50% 30.06 in 10.0 mi North 3.5 mph - N/A   Clear
5:55 PM 67.5 °F 47.3 °F 48% 30.07 in 10.0 mi North 5.8 mph - N/A   Clear
6:15 PM 67.5 °F 47.1 °F 48% 30.07 in 10.0 mi NNW 8.1 mph - N/A   Clear
6:35 PM 67.1 °F 47.1 °F 49% 30.07 in 10.0 mi North 4.6 mph - N/A   Clear
6:55 PM 66.0 °F 46.6 °F 49% 30.08 in 10.0 mi North 5.8 mph - N/A   Clear
7:15 PM 65.1 °F 46.8 °F 51% 30.08 in 10.0 mi North 3.5 mph - N/A   Clear
7:35 PM 60.4 °F 49.3 °F 67% 30.09 in 10.0 mi Calm Calm - N/A   Clear
7:55 PM 58.8 °F 51.6 °F 77% 30.09 in 10.0 mi Calm Calm - N/A   Clear
8:15 PM 56.7 °F 50.9 °F 81% 30.10 in 10.0 mi Calm Calm - N/A   Clear
8:35 PM 56.3 °F 51.1 °F 83% 30.11 in 10.0 mi Calm Calm - N/A   Clear
8:55 PM 54.5 °F 50.0 °F 85% 30.12 in 10.0 mi Calm Calm - N/A   Clear
9:15 PM 54.5 °F 50.4 °F 86% 30.13 in 10.0 mi Calm Calm - N/A   Clear
9:35 PM 53.1 °F 50.7 °F 92% 30.13 in 10.0 mi Calm Calm - N/A   Clear
9:55 PM 54.0 °F 50.4 °F 88% 30.13 in 10.0 mi Calm Calm - N/A   Clear
10:15 PM 53.1 °F 50.4 °F 91% 30.13 in 10.0 mi Calm Calm - N/A   Clear
10:35 PM 52.3 °F 50.2 °F 92% 30.13 in 10.0 mi Calm Calm - N/A   Clear
10:55 PM 52.3 °F 50.7 °F 94% 30.13 in 10.0 mi Calm Calm - N/A   Clear
11:15 PM 50.9 °F 49.3 °F 94% 30.14 in 10.0 mi Calm Calm - N/A   Clear
11:35 PM 50.7 °F 49.3 °F 95% 30.13 in 10.0 mi Calm Calm - N/A   Clear
11:55 PM 49.5 °F 48.7 °F 97% 30.13 in 10.0 mi Calm Calm - N/A   Clear